Location: Nairn
(57.5833°N, 3.8667°W)
Time: 22:38:09
(UTC+00:00)

Tiros 1 - Pass Details

Date: 04 December 2020
Orbit: 630 x 663 km, 48.4° (Epoch: 22 January)

Event Time Altitude Azimuth Distance (km) Brightness Sun altitude
Rises 15:36:31 0° 241° (WSW) 2,993 12.7 -1.2°
Reaches altitude 10° 15:39:09 10° 229° (SW) 2,081 12.0 -1.4°
Maximum altitude 15:43:09 27° 173° (S) 1,283 9.2 -1.8°
Drops below altitude 10° 15:47:08 10° 116° (ESE) 2,075 9.5 -2.2°
Sets 15:49:45 0° 104° (ESE) 2,983 10.2 -2.5°
